GW4436 Weather Reports


time (UTC)temp
C
wind
direction
speed
KPH
gust
KPH
rain 1hr
cm
rain 24hr
cm
rain mn
cm
humidity
%
barometer
mb
20260506165004 29 243 11.3 22.5 0.00 0.00 0.00 54 1017.9
20260506164508 29 255 11.3 22.5 0.00 0.00 0.00 54 1018.0
20260506164006 29 289 8.0 24.1 0.00 0.00 0.00 55 1018.0
20260506163510 29 238 16.1 24.1 0.00 0.00 0.00 56 1018.0
20260506163011 29 217 16.1 24.1 0.00 0.00 0.00 56 1018.0
20260506162504 28 212 14.5 24.1 0.00 0.00 0.00 56 1018.2
20260506162009 28 215 8.0 20.9 0.00 0.00 0.00 57 1018.2
20260506160513 28 200 11.3 20.9 0.00 0.00 0.00 58 1018.1
20260506160028 28 212 12.9 20.9 0.00 0.00 0.00 60 1018.1
20260506155510 28 231 12.9 22.5 0.00 0.00 0.00 58 1018.1
20260506154504 27 193 8.0 24.1 0.00 0.00 0.00 59 1018.3
20260506154007 27 189 9.7 22.5 0.00 0.00 0.00 59 1018.3
20260506153003 27 166 14.5 24.1 0.00 0.00 0.00 62 1018.3
20260506152501 27 198 11.3 30.6 0.00 0.00 0.00 61 1018.4
20260506152002 27 203 20.9 30.6 0.00 0.00 0.00 61 1018.4
20260506151503 27 215 4.8 22.5 0.00 0.00 0.00 61 1018.2
20260506151002 27 226 11.3 25.7 0.00 0.00 0.00 62 1018.2
20260506150503 26 211 17.7 25.7 0.00 0.00 0.00 62 1018.1
20260506150005 26 196 19.3 27.4 0.00 0.00 0.00 62 1018.1
20260506145502 26 180 12.9 27.4 0.00 0.00 0.00 63 1018.2
20260506145004 26 207 17.7 27.4 0.00 0.00 0.00 64 1018.2
20260506144504 26 214 11.3 22.5 0.00 0.00 0.00 64 1018.2
20260506144002 26 218 14.5 22.5 0.00 0.00 0.00 64 1018.2
20260506143503 26 226 14.5 27.4 0.00 0.00 0.00 63 1018.3
20260506143008 26 236 12.9 27.4 0.00 0.00 0.00 64 1018.3
20260506142506 26 218 4.8 24.1 0.00 0.00 0.00 65 1018.2
20260506142003 25 206 14.5 25.7 0.00 0.00 0.00 64 1018.1
20260506141502 25 228 11.3 25.7 0.00 0.00 0.00 66 1018.1
20260506141004 25 218 16.1 25.7 0.00 0.00 0.00 66 1018.1
20260506140502 25 157 11.3 20.9 0.00 0.00 0.00 67 1018.1
20260506140004 25 180 14.5 24.1 0.00 0.00 0.00 66 1018.1
20260506135506 24 190 14.5 24.1 0.00 0.00 0.00 69 1018.0
20260506135003 24 202 14.5 24.1 0.00 0.00 0.00 69 1018.0
20260506134504 24 200 16.1 25.7 0.00 0.00 0.00 71 1018.0
20260506134003 23 143 14.5 25.7 0.00 0.00 0.00 73 1018.2
20260506133504 23 193 14.5 25.7 0.00 0.00 0.00 73 1018.2
20260506133006 23 182 19.3 25.7 0.00 0.00 0.00 74 1018.2
20260506132506 23 193 16.1 25.7 0.00 0.00 0.00 74 1018.2
20260506132003 22 200 16.1 24.1 0.00 0.00 0.00 74 1018.2
20260506131003 22 218 14.5 20.9 0.00 0.00 0.00 75 1018.2
20260506130506 21 191 9.7 17.7 0.00 0.00 0.00 77 1018.0
20260506130003 21 178 8.0 12.9 0.00 0.00 0.00 77 1018.1
20260506125503 21 200 9.7 12.9 0.00 0.00 0.00 77 1018.1
20260506125004 20 195 8.0 12.9 0.00 0.00 0.00 78 1018.0
20260506124503 20 192 8.0 12.9 0.00 0.00 0.00 79 1017.9
20260506123005 18 186 6.4 9.7 0.00 0.00 0.00 83 1017.8
20260506122504 18 188 6.4 9.7 0.00 0.00 0.00 85 1017.8
20260506122003 17 198 3.2 6.4 0.00 0.00 0.00 86 1017.7
20260506121003 17 145 1.6 3.2 0.00 0.00 0.00 89 1017.6
20260506120507 16 179 0.0 3.2 0.00 0.00 0.00 89 1017.6
20260506115002 16 162 1.6 3.2 0.00 0.00 0.00 90 1017.3
20260506114503 16 163 1.6 3.2 0.00 0.00 0.00 91 1017.3
20260506114005 15 153 1.6 3.2 0.00 0.00 0.00 91 1017.2
20260506113504 15 174 1.6 3.2 0.00 0.00 0.00 91 1017.2
20260506113006 15 174 1.6 3.2 0.00 0.00 0.00 91 1017.3
20260506112505 15 173 1.6 1.6 0.00 0.00 0.00 91 1017.3
20260506112004 15 165 0.0 3.2 0.00 0.00 0.00 91 1017.3
20260506111505 15 168 1.6 3.2 0.00 0.00 0.00 91 1017.3
20260506111004 15 184 0.0 3.2 0.00 0.00 0.00 91 1017.3
20260506110504 14 183 1.6 3.2 0.00 0.00 0.00 90 1017.4
20260506110011 14 178 0.0 3.2 0.00 0.00 0.00 90 1017.2
20260506105504 14 179 0.0 3.2 0.00 0.00 0.00 90 1017.1
20260506103006 15 168 0.0 0.0 0.00 0.00 0.00 89 1016.8
20260506102504 15 168 0.0 0.0 0.00 0.00 0.00 89 1016.9
20260506102004 15 168 0.0 3.2 0.00 0.00 0.00 89 1016.8
20260506101516 15 168 0.0 3.2 0.00 0.00 0.00 89 1016.9
20260506101004 15 168 0.0 3.2 0.00 0.00 0.00 89 1016.8
20260506100504 15 163 1.6 3.2 0.00 0.00 0.00 89 1016.7
20260506100014 15 179 1.6 3.2 0.00 0.00 0.00 89 1016.8
20260506095506 15 174 3.2 3.2 0.00 0.00 0.00 90 1016.7
20260506094005 15 188 1.6 3.2 0.00 0.00 0.00 89 1016.7
20260506093022 15 176 0.0 1.6 0.00 0.00 0.00 89 1016.8
20260506092504 15 176 1.6 1.6 0.00 0.00 0.00 89 1016.8
20260506092007 15 171 1.6 1.6 0.00 0.00 0.00 89 1016.7
20260506091505 15 171 0.0 1.6 0.00 0.00 0.00 89 1016.7
20260506091005 15 171 0.0 0.0 0.00 0.00 0.00 89 1016.6
20260506090504 15 171 0.0 3.2 0.00 0.00 0.00 88 1016.7
20260506090014 15 171 0.0 3.2 0.00 0.00 0.00 88 1016.5
20260506085505 15 171 0.0 1.6 0.00 0.00 0.00 88 1016.5
20260506085004 15 171 1.6 3.2 0.00 0.00 0.00 88 1016.4
20260506084511 15 176 0.0 3.2 0.00 0.00 0.00 88 1016.5
20260506084002 15 176 0.0 3.2 0.00 0.00 0.00 88 1016.5
20260506083503 15 179 0.0 3.2 0.00 0.00 0.00 88 1016.5
20260506083004 16 182 0.0 3.2 0.00 0.00 0.00 87 1016.6
20260506082503 15 184 0.0 3.2 0.00 0.00 0.00 87 1016.7
20260506082003 16 174 1.6 3.2 0.00 0.00 0.00 87 1016.7
20260506081506 16 184 1.6 3.2 0.00 0.00 0.00 87 1016.6
20260506081004 16 175 0.0 3.2 0.00 0.00 0.00 87 1016.7
20260506080504 16 171 0.0 3.2 0.00 0.00 0.00 87 1016.7
20260506073508 16 203 0.0 3.2 0.00 0.00 0.00 87 1016.5
20260506073033 16 200 1.6 3.2 0.00 0.00 0.00 86 1016.5
20260506072504 16 178 1.6 3.2 0.00 0.00 0.00 87 1016.4
20260506072003 16 191 1.6 4.8 0.00 0.00 0.00 87 1016.4
20260506071505 16 187 1.6 6.4 0.00 0.00 0.00 87 1016.3
20260506071006 16 184 3.2 6.4 0.00 0.00 0.00 87 1016.4
20260506070503 16 160 3.2 4.8 0.00 0.00 0.00 88 1016.4
20260506062507 15 160 0.0 3.2 0.00 0.00 0.00 88 1017.1
20260506062010 15 160 1.6 3.2 0.00 0.00 0.00 88 1017.1
20260506061520 15 160 1.6 1.6 0.00 0.00 0.00 88 1017.1
20260506061004 15 160 1.6 1.6 0.00 0.00 0.00 88 1017.2
20260506060504 15 160 0.0 1.6 0.00 0.00 0.00 87 1017.3
20260506051008 16 179 1.6 3.2 0.00 0.00 0.00 87 1017.7
20260506050510 16 174 0.0 3.2 0.00 0.00 0.00 87 1017.7
20260506045003 16 178 0.0 3.2 0.00 0.00 0.00 86 1017.7
20260506044531 16 178 0.0 0.0 0.00 0.00 0.00 86 1017.8
20260506044003 16 178 0.0 3.2 0.00 0.00 0.00 86 1017.9
20260506043505 16 178 0.0 3.2 0.00 0.00 0.00 85 1017.9
20260506043017 16 178 0.0 3.2 0.00 0.00 0.00 85 1017.9
20260506042504 16 178 0.0 3.2 0.00 0.00 0.00 85 1017.9
20260506042011 16 178 0.0 0.0 0.00 0.00 0.00 84 1017.9
20260506041519 16 178 0.0 3.2 0.00 0.00 0.00 85 1018.0
20260506041009 16 178 0.0 3.2 0.00 0.00 0.00 1017.9
20260506040508 16 178 0.0 3.2 0.00 0.00 0.00 1017.9
20260506040022 16 178 0.0 3.2 0.00 0.00 0.00 1017.8
20260506035511 17 176 1.6 3.2 0.00 0.00 0.00 83 1017.8
20260506035011 17 165 1.6 3.2 0.00 0.00 0.00 83 1017.9
20260506034518 17 165 0.0 3.2 0.00 0.00 0.00 83 1018.0
20260506034005 17 165 0.0 3.2 0.00 0.00 0.00 83 1018.0
20260506033504 17 165 0.0 0.0 0.00 0.00 0.00 82 1018.0
20260506033012 17 165 0.0 1.6 0.00 0.00 0.00 82 1018.2
20260506032507 17 165 0.0 1.6 0.00 0.00 0.00 82 1018.1
20260506032007 17 165 0.0 3.2 0.00 0.00 0.00 81 1018.0
20260506031517 17 165 0.0 3.2 0.00 0.00 0.00 81 1018.0
20260506031009 17 165 0.0 1.6 0.00 0.00 0.00 80 1017.9
20260506030504 17 165 0.0 0.0 0.00 0.00 0.00 80 1017.9
20260506030003 18 165 0.0 0.0 0.00 0.00 0.00 80 1017.9
20260506025503 18 165 0.0 0.0 0.00 0.00 0.00 80 1017.9
20260506025003 18 165 0.0 0.0 0.00 0.00 0.00 80 1017.7
20260506024502 18 165 0.0 0.0 0.00 0.00 0.00 79 1017.6
20260506024004 18 165 0.0 3.2 0.00 0.00 0.00 79 1017.6
20260506023504 18 165 0.0 3.2 0.00 0.00 0.00 78 1017.5
20260506023002 18 165 0.0 3.2 0.00 0.00 0.00 77 1017.4
20260506022502 18 165 0.0 3.2 0.00 0.00 0.00 76 1017.5
20260506022002 19 165 0.0 3.2 0.00 0.00 0.00 76 1017.4
20260506021503 19 165 0.0 3.2 0.00 0.00 0.00 76 1017.4
20260506021002 19 165 0.0 3.2 0.00 0.00 0.00 75 1017.3
20260506020503 19 178 0.0 3.2 0.00 0.00 0.00 74 1017.3
20260506020004 19 184 1.6 3.2 0.00 0.00 0.00 74 1017.2
20260506015504 20 187 1.6 3.2 0.00 0.00 0.00 74 1017.1
20260506015011 20 108 1.6 3.2 0.00 0.00 0.00 74 1017.1
20260506014504 20 148 0.0 3.2 0.00 0.00 0.00 73 1017.0
20260506014003 20 117 0.0 3.2 0.00 0.00 0.00 73 1016.9
20260506013504 20 70 0.0 3.2 0.00 0.00 0.00 72 1016.8
20260506013002 20 153 0.0 3.2 0.00 0.00 0.00 72 1016.8
20260506012502 20 188 1.6 3.2 0.00 0.00 0.00 71 1016.9
20260506012001 20 123 0.0 4.8 0.00 0.00 0.00 71 1016.8
20260506011507 20 160 1.6 4.8 0.00 0.00 0.00 70 1016.7
20260506011005 21 156 1.6 3.2 0.00 0.00 0.00 70 1016.7
20260506010503 21 155 0.0 3.2 0.00 0.00 0.00 69 1016.7
20260506010005 21 186 0.0 4.8 0.00 0.00 0.00 68 1016.6
20260506005503 21 89 1.6 4.8 0.00 0.00 0.00 68 1016.7
20260506005002 21 198 0.0 3.2 0.00 0.00 0.00 67 1016.7
20260506004504 21 6 0.0 6.4 0.00 0.00 0.00 67 1016.6
20260506004003 21 117 0.0 6.4 0.00 0.00 0.00 66 1016.6
20260506003504 22 73 0.0 3.2 0.00 0.00 0.00 66 1016.5
20260506003009 22 150 0.0 4.8 0.00 0.00 0.00 65 1016.6
20260506002506 22 158 1.6 4.8 0.00 0.00 0.00 64 1016.6
20260506002004 22 159 1.6 6.4 0.00 0.00 0.00 63 1016.6
20260506001502 22 139 1.6 6.4 0.00 0.00 0.00 62 1016.6
20260506001002 22 115 1.6 4.8 0.00 0.00 0.00 62 1016.6
20260506000507 23 82 1.6 6.4 0.00 0.00 0.00 61 1016.6
20260506000003 23 141 1.6 6.4 0.00 0.00 0.00 60 1016.5
20260505235504 23 75 3.2 8.0 0.00 0.00 0.00 59 1016.4
20260505235003 23 221 3.2 11.3 0.00 0.00 0.00 58 1016.5
20260505234508 23 84 1.6 12.9 0.00 0.00 0.00 58 1016.5
20260505234003 23 103 4.8 12.9 0.00 0.00 0.00 57 1016.5
20260505233503 24 83 3.2 16.1 0.00 0.00 0.00 56 1016.4
20260505233008 24 63 1.6 16.1 0.00 0.00 0.00 56 1016.5
20260505232503 24 124 4.8 16.1 0.00 0.00 0.00 55 1016.3
20260505232005 24 161 3.2 12.9 0.00 0.00 0.00 53 1016.4
20260505231513 24 117 4.8 14.5 0.00 0.00 0.00 52 1016.5
20260505231003 25 125 8.0 14.5 0.00 0.00 0.00 51 1016.5
20260505230502 25 154 1.6 16.1 0.00 0.00 0.00 51 1016.4
20260505230006 25 87 6.4 16.1 0.00 0.00 0.00 50 1016.3
20260505225503 25 117 4.8 14.5 0.00 0.00 0.00 50 1016.4
20260505225004 25 193 4.8 12.9 0.00 0.00 0.00 49 1016.4
20260505224503 25 129 3.2 12.9 0.00 0.00 0.00 49 1016.2
20260505224002 25 86 6.4 17.7 0.00 0.00 0.00 49 1016.3
20260505223505 26 86 8.0 17.7 0.00 0.00 0.00 49 1016.3
20260505223005 26 155 6.4 14.5 0.00 0.00 0.00 49 1016.3
20260505222506 26 110 3.2 16.1 0.00 0.00 0.00 49 1016.2
20260505222004 26 105 1.6 16.1 0.00 0.00 0.00 49 1016.1
20260505221512 26 70 4.8 19.3 0.00 0.00 0.00 50 1016.0
20260505221011 26 81 8.0 19.3 0.00 0.00 0.00 49 1016.0
20260505220503 26 120 9.7 20.9 0.00 0.00 0.00 48 1016.1
20260505220024 26 110 12.9 20.9 0.00 0.00 0.00 48 1016.1
20260505215503 26 161 6.4 20.9 0.00 0.00 0.00 48 1016.2
20260505215003 26 152 12.9 20.9 0.00 0.00 0.00 48 1016.1
20260505214523 26 150 8.0 17.7 0.00 0.00 0.00 47 1016.1
20260505214003 26 150 11.3 16.1 0.00 0.00 0.00 47 1016.2
20260505213503 26 150 8.0 19.3 0.00 0.00 0.00 47 1016.2
20260505213004 26 162 8.0 19.3 0.00 0.00 0.00 47 1016.2
20260505212508 27 180 12.9 19.3 0.00 0.00 0.00 47 1016.2
20260505212010 27 134 6.4 17.7 0.00 0.00 0.00 48 1016.2
20260505211506 27 148 11.3 22.5 0.00 0.00 0.00 47 1016.2
20260505211006 27 179 4.8 22.5 0.00 0.00 0.00 47 1016.3
20260505210504 27 146 12.9 19.3 0.00 0.00 0.00 46 1016.2
20260505210015 27 150 11.3 17.7 0.00 0.00 0.00 46 1016.1
20260505205007 27 71 9.7 20.9 0.00 0.00 0.00 45 1016.2
20260505204519 27 59 6.4 20.9 0.00 0.00 0.00 46 1016.2
20260505204006 27 175 12.9 20.9 0.00 0.00 0.00 45 1016.3
20260505203504 27 93 4.8 19.3 0.00 0.00 0.00 46 1016.3
20260505203003 27 101 8.0 17.7 0.00 0.00 0.00 46 1016.3
20260505202510 27 179 11.3 17.7 0.00 0.00 0.00 47 1016.4
20260505202013 27 144 6.4 16.1 0.00 0.00 0.00 47 1016.4
20260505201525 27 150 6.4 14.5 0.00 0.00 0.00 46 1016.4
20260505201003 27 143 4.8 17.7 0.00 0.00 0.00 46 1016.4
20260505200504 27 186 4.8 17.7 0.00 0.00 0.00 46 1016.4
20260505200013 27 98 8.0 20.9 0.00 0.00 0.00 46 1016.5
20260505195504 27 157 9.7 20.9 0.00 0.00 0.00 47 1016.6
20260505195005 27 149 11.3 17.7 0.00 0.00 0.00 46 1016.7
20260505194530 27 160 11.3 17.7 0.00 0.00 0.00 47 1016.6
20260505194006 27 165 8.0 16.1 0.00 0.00 0.00 47 1016.6
20260505193509 27 162 3.2 19.3 0.00 0.00 0.00 46 1016.7
20260505193012 28 174 12.9 19.3 0.00 0.00 0.00 47 1016.7
20260505192504 27 108 4.8 14.5 0.00 0.00 0.00 46 1016.8
20260505192003 27 173 4.8 17.7 0.00 0.00 0.00 47 1016.8
20260505191532 27 108 8.0 17.7 0.00 0.00 0.00 47 1017.0
20260505191018 27 83 6.4 17.7 0.00 0.00 0.00 48 1016.9
20260505190505 27 128 8.0 20.9 0.00 0.00 0.00 48 1017.0
20260505190011 27 58 3.2 20.9 0.00 0.00 0.00 48 1016.9
20260505185504 27 108 9.7 17.7 0.00 0.00 0.00 48 1017.0
20260505185008 27 27 8.0 19.3 0.00 0.00 0.00 48 1017.0
20260505184528 27 156 6.4 19.3 0.00 0.00 0.00 47 1017.1
20260505184007 27 101 12.9 17.7 0.00 0.00 0.00 45 1017.1
20260505183509 27 71 4.8 14.5 0.00 0.00 0.00 46 1017.0
20260505183028 27 27 4.8 12.9 0.00 0.00 0.00 41 1017.1
20260505182503 27 43 3.2 12.9 0.00 0.00 0.00 41 1017.3
20260505182009 28 289 6.4 9.7 0.00 0.00 0.00 40 1017.3
20260505181504 28 79 6.4 9.7 0.00 0.00 0.00 40 1017.5
20260505181005 28 159 4.8 16.1 0.00 0.00 0.00 40 1017.5
20260505180510 27 139 8.0 16.1 0.00 0.00 0.00 41 1017.5
20260505180008 27 293 3.2 9.7 0.00 0.00 0.00 40 1017.5
20260505175502 27 222 6.4 12.9 0.00 0.00 0.00 42 1017.5
20260505175002 27 284 6.4 16.1 0.00 0.00 0.00 41 1017.6
20260505174002 27 188 8.0 14.5 0.00 0.00 0.00 45 1017.8
20260505173503 27 200 8.0 14.5 0.00 0.00 0.00 45 1017.8
20260505173002 26 185 4.8 12.9 0.00 0.00 0.00 44 1017.8
20260505172502 27 216 9.7 12.9 0.00 0.00 0.00 43 1017.8
20260505172003 27 259 6.4 14.5 0.00 0.00 0.00 44 1017.8
20260505171504 26 239 9.7 14.5 0.00 0.00 0.00 43 1017.8
20260505171004 27 207 8.0 14.5 0.00 0.00 0.00 44 1017.7
20260505170507 27 201 8.0 12.9 0.00 0.00 0.00 45 1017.7
20260505170019 26 88 4.8 17.7 0.00 0.00 0.00 43 1017.7